FW9714 Weather Reports


time (UTC)temp
F
wind
direction
speed
knots
gust
knots
rain 1hr
in
rain 24hr
in
rain mn
in
humidity
%
barometer
mb
20260510193049 75 150 1.7 4.3 0.14 0.55 0.25 85 1015.4
20260510191553 76 71 5.2 13.9 0.23 0.52 0.23 84 1015.3
20260510190057 77 110 5.2 7.8 0.17 0.47 0.17 83 1016.1
20260510184548 78 10 3.5 10.4 0.11 0.41 0.11 83 1015.8
20260510183056 78 51 4.3 12.2 0.11 0.41 0.11 80 1015.8
20260510181554 90 327 1.7 5.2 0.00 0.30 0.00 61 1014.7
20260510180052 91 284 3.5 9.6 0.00 0.30 0.00 56 1014.9
20260510174556 91 227 7.0 11.3 0.00 0.30 0.00 61 1015.1
20260510173053 91 161 5.2 9.6 0.00 0.30 0.00 60 1015.4
20260510171553 89 148 1.7 3.5 0.00 0.30 0.00 65 1015.6
20260510170054 88 159 2.6 7.0 0.00 0.30 0.00 65 1015.9
20260510164554 87 183 3.5 7.0 0.00 0.30 0.00 64 1016.2
20260510163055 86 178 4.3 10.4 0.00 0.30 0.00 67 1016.6
20260510161553 87 212 7.8 9.6 0.00 0.30 0.00 68 1016.4
20260510160133 85 180 4.3 7.8 0.00 0.30 0.00 67 1016.4
20260510154600 85 226 3.5 6.1 0.00 0.30 0.00 70 1016.5
20260510153055 85 249 3.5 7.0 0.00 0.30 0.00 72 1016.6
20260510151553 84 210 4.3 7.0 0.00 0.30 0.00 74 1016.6
20260510150054 83 263 2.6 5.2 0.00 0.30 0.00 74 1016.6
20260510144553 83 240 4.3 7.0 0.00 0.30 0.00 75 1016.3
20260510143056 82 190 4.3 6.1 0.00 0.30 0.00 78 1016.4
20260510141554 79 220 1.7 4.3 0.00 0.30 0.00 82 1016.4
20260510140109 78 187 1.7 4.3 0.00 0.30 0.00 84 1016.2
20260510134604 76 184 0.9 2.6 0.00 0.30 0.00 86 1016.0
20260510133100 75 200 1.7 3.5 0.00 0.30 0.00 87 1015.9
20260510131552 74 194 1.7 3.5 0.00 0.30 0.00 88 1015.9
20260510130047 74 181 3.5 4.3 0.00 0.30 0.00 89 1015.7
20260510124553 73 209 2.6 3.5 0.00 0.30 0.00 89 1015.6
20260510123050 73 208 1.7 3.5 0.00 0.30 0.00 89 1015.6
20260510121547 73 202 1.7 2.6 0.00 0.30 0.00 89 1015.1
20260510120050 72 206 0.9 1.7 0.00 0.30 0.00 89 1015.0
20260510114550 71 158 0.9 2.6 0.00 0.30 0.00 89 1014.9
20260510113051 71 35 0.0 1.7 0.00 0.30 0.00 89 1014.5
20260510111606 70 0 0.0 1.7 0.00 0.30 0.00 89 1014.3
20260510110049 70 267 0.0 1.7 0.00 0.30 0.00 89 1014.3
20260510104547 69 0 0.0 1.7 0.00 0.30 0.00 89 1014.3
20260510103048 70 175 0.0 1.7 0.00 0.30 0.00 89 1013.9
20260510101552 71 178 0.9 3.5 0.00 0.30 0.00 89 1013.6
20260510100053 71 166 3.5 5.2 0.00 0.30 0.00 89 1013.2
20260510094553 71 207 1.7 2.6 0.00 0.30 0.00 89 1013.3
20260510093103 71 227 1.7 3.5 0.00 0.30 0.00 89 1013.3
20260510091549 71 190 3.5 5.2 0.00 0.30 0.00 89 1013.3
20260510090109 72 190 3.5 5.2 0.00 0.30 0.00 89 1013.0
20260510084550 72 165 2.6 7.0 0.00 0.30 0.00 89 1012.8
20260510083108 72 147 4.3 7.8 0.00 0.30 0.00 89 1012.7
20260510081608 72 142 3.5 6.1 0.00 0.30 0.00 89 1012.7
20260510080056 72 162 2.6 6.1 0.00 0.30 0.00 89 1013.0
20260510074603 71 153 1.7 3.5 0.00 0.30 0.00 89 1013.0
20260510073050 71 147 4.3 6.1 0.00 0.30 0.00 89 1013.2
20260510071551 71 160 3.5 6.1 0.00 0.30 0.00 89 1013.2
20260510070232 71 185 4.3 5.2 0.00 0.30 0.00 89 1013.3
20260510064603 70 196 2.6 5.2 0.00 0.30 0.00 88 1013.6
20260510063049 70 171 3.5 6.1 0.00 0.30 0.00 88 1013.7
20260510061556 71 157 2.6 6.1 0.00 0.30 0.00 89 1013.8
20260510060055 71 136 1.7 4.3 0.00 0.30 0.00 88 1014.1
20260510054550 71 115 2.6 4.3 0.00 0.30 0.00 88 1014.3
20260510053053 71 159 2.6 4.3 0.00 0.30 0.00 88 1014.6
20260510051551 71 161 1.7 3.5 0.00 0.30 0.00 88 1014.6
20260510050051 71 182 2.6 4.3 0.00 0.30 0.00 88 1014.5
20260510044610 71 245 0.0 1.7 0.00 0.30 0.00 88 1014.8
20260510043047 71 0 0.0 1.7 0.00 0.30 0.00 88 1014.7
20260510041552 71 233 0.9 3.5 0.00 0.30 0.00 88 1015.0
20260510040050 71 101 0.0 3.5 0.00 0.30 0.00 88 1015.1
20260510034551 71 152 0.9 1.7 0.00 0.30 0.30 87 1015.1
20260510033056 71 129 0.9 2.6 0.00 0.30 0.30 87 1015.0
20260510031550 71 129 0.9 1.7 0.00 0.30 0.30 87 1014.7
20260510030051 72 129 1.7 3.5 0.00 0.30 0.30 87 1014.9
20260510024552 72 109 1.7 2.6 0.00 0.30 0.30 87 1014.9
20260510023050 73 78 2.6 4.3 0.00 0.30 0.30 86 1014.7
20260510021552 73 104 1.7 3.5 0.00 0.30 0.30 86 1014.5
20260510020051 73 98 1.7 5.2 0.00 0.30 0.30 86 1014.4
20260510014552 73 78 0.9 2.6 0.00 0.30 0.30 86 1014.4
20260510013050 74 100 3.5 5.2 0.00 0.30 0.30 86 1014.1
20260510011558 74 106 3.5 3.5 0.00 0.30 0.30 86 1013.9
20260510010124 74 65 2.6 4.3 0.00 0.30 0.30 86 1013.7
20260510004553 74 84 1.7 2.6 0.00 0.30 0.30 85 1014.0
20260510003054 75 23 2.6 3.5 0.00 0.30 0.30 85 1013.6
20260510001556 74 319 1.7 4.3 0.00 0.30 0.30 85 1013.4
20260510000050 75 18 1.7 6.1 0.00 0.30 0.30 84 1013.1
20260509234555 75 344 1.7 5.2 0.00 0.36 0.30 84 1012.8
20260509233047 75 338 4.3 7.8 0.00 0.36 0.30 84 1012.9
20260509231550 76 351 5.2 10.4 0.00 0.36 0.30 84 1013.1
20260509230054 76 333 3.5 7.0 0.00 0.36 0.30 84 1012.7
20260509224549 76 346 3.5 7.8 0.00 0.36 0.30 84 1012.4
20260509223047 76 14 4.3 7.8 0.00 0.36 0.30 84 1012.3
20260509221546 76 34 2.6 5.2 0.00 0.36 0.30 85 1012.4
20260509220049 76 37 2.6 6.1 0.00 0.36 0.30 85 1012.5
20260509214548 76 352 3.5 7.8 0.00 0.36 0.30 85 1012.3
20260509213051 75 360 5.2 9.6 0.00 0.36 0.30 84 1012.2
20260509211553 75 352 4.3 13.0 0.00 0.36 0.30 84 1012.1
20260509210051 76 27 5.2 8.7 0.00 0.36 0.30 85 1012.0
20260509204551 76 339 3.5 4.3 0.00 0.36 0.30 86 1011.9
20260509203124 76 0.0 0.0 0.29 0.36 0.30 85 1012.1
20260509201556 76 0.0 4.3 0.30 0.36 0.30 85 1012.0
20260509200059 76 0 0.0 0.0 0.30 0.36 0.30 83 1012.1
20260509194547 78 0 0.0 0.0 0.13 0.19 0.13 78 1012.6